Weather History for Claremore, OK

Change the Weather History Date:

Wednesday, June 26, 2013

  Actual Average (KTUL) Record (KTUL)
Temperature  
Mean Temperature 83 °F 80 °F  
Max Temperature 91 °F 90 °F 105 °F (1918)
Min Temperature 75 °F 70 °F 53 °F (1958)
Cooling Degree Days 18 15  
Month to date cooling degree days 315  
Year to date cooling degree days 549  
Since 1 June cooling degree days 315  
Growing Degree Days 33 (Base 50)    
Moisture  
Dew Point 71 °F    
Average Humidity 68    
Maximum Humidity 83    
Minimum Humidity 52    
Precipitation  
Precipitation 0.00 in 0.13 in 2.80 in (1896)
Month to date precipitation 4.19  
Year to date precipitation 20.69  
Sea Level Pressure  
Sea Level Pressure 29.89 in    
Wind  
Wind Speed 10 mph (South)    
Max Wind Speed 18 mph    
Max Gust Speed 25 mph    
Visibility 10 miles    
Events      
T = Trace of Precipitation, MM = Missing Value Source: NWS Daily Summary

Daily Weather History Graph

Daily Weather History Graph

Search for Another Location

Airport:

Trip Planner

Search our weather history database for the weather conditions in past years. The results will help you decide how hot, cold, wet, or windy it might be!

Date:

Astronomy

Jun. 26, 2013 Rise Set
Actual Time 6:06 AM CDT 8:43 PM CDT
Civil Twilight 5:35 AM CDT 9:13 PM CDT
Nautical Twilight 4:57 AM CDT 9:51 PM CDT
Astronomical Twilight 4:15 AM CDT 10:33 PM CDT
Moon 11:15 PM CDT (6/26) 9:52 AM CDT (6/26)
Length of Visible Light 15h 38m
Length of Day
14h 37m
Waning Gibbous, 85% of the Moon is Illuminated
Jun 26
Waning Gibbous
Jun 29
Last Quarter
Jul 8
New
Jul 15
First Quarter
Jul 22
Full

Hourly Weather History & Observations

Time (CDT) Temp. Heat Index Dew Point Humidity Pressure Visibility Wind Dir Wind Speed Gust Speed Precip Events Conditions
12:15 AM 77.0 °F - 69.8 °F 78% 29.86 in 10.0 mi South 9.2 mph - N/A   Clear
12:35 AM 77.0 °F - 69.8 °F 78% 29.86 in 7.0 mi South 9.2 mph - N/A   Clear
12:55 AM 77.0 °F - 69.8 °F 78% 29.86 in 7.0 mi SSE 9.2 mph - N/A   Clear
1:15 AM 77.0 °F - 69.8 °F 78% 29.86 in 10.0 mi South 9.2 mph - N/A   Clear
1:35 AM 77.0 °F - 69.8 °F 78% 29.86 in 7.0 mi South 8.1 mph - N/A   Clear
1:55 AM 77.0 °F - 69.8 °F 78% 29.86 in 10.0 mi South 9.2 mph - N/A   Clear
2:15 AM 77.0 °F - 69.8 °F 78% 29.87 in 10.0 mi South 6.9 mph - N/A   Clear
2:35 AM 77.0 °F - 69.8 °F 78% 29.86 in 10.0 mi South 8.1 mph - N/A   Clear
2:55 AM 75.2 °F - 68.0 °F 78% 29.86 in 10.0 mi South 9.2 mph - N/A   Clear
3:15 AM 75.2 °F - 68.0 °F 78% 29.85 in 10.0 mi South 9.2 mph - N/A   Clear
3:35 AM 75.2 °F - 68.0 °F 78% 29.85 in 10.0 mi South 6.9 mph - N/A   Clear
3:55 AM 75.2 °F - 68.0 °F 78% 29.85 in 10.0 mi South 9.2 mph - N/A   Clear
4:15 AM 75.2 °F - 68.0 °F 78% 29.85 in 10.0 mi South 10.4 mph - N/A   Clear
4:35 AM 75.2 °F - 68.0 °F 78% 29.85 in 10.0 mi South 9.2 mph - N/A   Clear
4:55 AM 75.2 °F - 68.0 °F 78% 29.85 in 10.0 mi South 8.1 mph - N/A   Clear
5:15 AM 75.2 °F - 68.0 °F 78% 29.86 in 10.0 mi South 6.9 mph - N/A   Clear
5:35 AM 75.2 °F - 68.0 °F 78% 29.86 in 10.0 mi South 8.1 mph - N/A   Clear
5:55 AM 75.2 °F - 68.0 °F 78% 29.86 in 10.0 mi South 8.1 mph - N/A   Clear
6:15 AM 77.0 °F - 68.0 °F 74% 29.87 in 10.0 mi South 9.2 mph - N/A   Clear
6:35 AM 75.2 °F - 68.0 °F 78% 29.88 in 10.0 mi South 10.4 mph - N/A   Clear
6:55 AM 77.0 °F - 68.0 °F 74% 29.88 in 10.0 mi South 8.1 mph - N/A   Clear
7:15 AM 77.0 °F - 68.0 °F 74% 29.89 in 10.0 mi South 10.4 mph - N/A   Clear
7:35 AM 77.0 °F - 68.0 °F 74% 29.89 in 10.0 mi South 10.4 mph - N/A   Clear
7:55 AM 78.8 °F - 68.0 °F 69% 29.90 in 10.0 mi South 8.1 mph 17.3 mph N/A   Clear
8:15 AM 78.8 °F - 68.0 °F 69% 29.90 in 10.0 mi SSW 13.8 mph - N/A   Clear
8:35 AM 80.6 °F 83.2 °F 68.0 °F 65% 29.90 in 10.0 mi South 13.8 mph 18.4 mph N/A   Clear
8:55 AM 80.6 °F 83.2 °F 68.0 °F 65% 29.91 in 10.0 mi SSW 17.3 mph - N/A   Clear
9:15 AM 80.6 °F 83.2 °F 68.0 °F 65% 29.91 in 7.0 mi SSW 16.1 mph 19.6 mph N/A   Clear
9:55 AM 82.4 °F 85.4 °F 68.0 °F 62% 29.91 in 10.0 mi SSW 18.4 mph 25.3 mph N/A   Clear
10:15 AM 82.4 °F 86.3 °F 69.8 °F 66% 29.91 in 10.0 mi SSW 18.4 mph 21.9 mph N/A   Clear
10:35 AM 84.2 °F 88.4 °F 69.8 °F 62% 29.91 in 10.0 mi SSW 18.4 mph 23.0 mph N/A   Clear
10:55 AM 86.0 °F 90.4 °F 69.8 °F 58% 29.91 in 10.0 mi SSW 18.4 mph 23.0 mph N/A   Clear
11:15 AM 86.0 °F 90.4 °F 69.8 °F 58% 29.91 in 10.0 mi SSW 17.3 mph 23.0 mph N/A   Clear
11:35 AM 86.0 °F 91.8 °F 71.6 °F 62% 29.92 in 10.0 mi SSW 17.3 mph 20.7 mph N/A   Clear
11:55 AM 87.8 °F 93.8 °F 71.6 °F 58% 29.92 in 10.0 mi SSW 15.0 mph - N/A   Clear
12:15 PM 87.8 °F 93.8 °F 71.6 °F 58% 29.92 in 10.0 mi SSW 13.8 mph - N/A   Clear
12:35 PM 87.8 °F 93.8 °F 71.6 °F 58% 29.92 in 10.0 mi SW 10.4 mph 19.6 mph N/A   Clear
12:55 PM 89.6 °F 96.2 °F 71.6 °F 55% 29.92 in 10.0 mi South 9.2 mph - N/A   Clear
1:15 PM 89.6 °F 96.2 °F 71.6 °F 55% 29.92 in 10.0 mi SW 12.7 mph 18.4 mph N/A   Clear
1:35 PM 89.6 °F 98.2 °F 73.4 °F 59% 29.91 in 7.0 mi SSW 15.0 mph - N/A   Clear
1:55 PM 89.6 °F 96.2 °F 71.6 °F 55% 29.91 in 10.0 mi SSW 12.7 mph - N/A   Clear
2:15 PM 91.4 °F 100.1 °F 73.4 °F 55% 29.91 in 10.0 mi SW 11.5 mph - N/A   Clear
2:35 PM 91.4 °F 100.1 °F 73.4 °F 55% 29.91 in 10.0 mi WSW 10.4 mph - N/A   Clear
2:55 PM 91.4 °F 98.4 °F 71.6 °F 52% 29.91 in 10.0 mi SSW 10.4 mph - N/A   Clear
3:15 PM 91.4 °F 100.1 °F 73.4 °F 55% 29.91 in 10.0 mi SSW 10.4 mph 17.3 mph N/A   Clear
3:35 PM 91.4 °F 100.1 °F 73.4 °F 55% 29.90 in 10.0 mi SW 11.5 mph 16.1 mph N/A   Clear
3:55 PM 91.4 °F 100.1 °F 73.4 °F 55% 29.90 in 10.0 mi SSW 10.4 mph 17.3 mph N/A   Clear
4:15 PM 91.4 °F 100.1 °F 73.4 °F 55% 29.90 in 10.0 mi South 10.4 mph - N/A   Clear
4:35 PM 91.4 °F 100.1 °F 73.4 °F 55% 29.90 in 10.0 mi SW 8.1 mph - N/A   Clear
4:55 PM 91.4 °F 102.5 °F 75.2 °F 59% 29.89 in 10.0 mi South 10.4 mph - N/A   Clear
5:15 PM 91.4 °F 100.1 °F 73.4 °F 55% 29.89 in 10.0 mi SSW 8.1 mph - N/A   Clear
5:35 PM 91.4 °F 100.1 °F 73.4 °F 55% 29.89 in 10.0 mi SSW 8.1 mph - N/A   Clear
5:55 PM 91.4 °F 100.1 °F 73.4 °F 55% 29.89 in 10.0 mi South 6.9 mph - N/A   Clear
6:15 PM 91.4 °F 100.1 °F 73.4 °F 55% 29.89 in 10.0 mi South 8.1 mph - N/A   Clear
6:35 PM 91.4 °F 100.1 °F 73.4 °F 55% 29.89 in 10.0 mi SSW 10.4 mph - N/A   Clear
6:55 PM 91.4 °F 100.1 °F 73.4 °F 55% 29.89 in 10.0 mi SSW 6.9 mph - N/A   Clear
7:15 PM 89.6 °F 98.2 °F 73.4 °F 59% 29.90 in 10.0 mi SSW 8.1 mph - N/A   Clear
7:35 PM 89.6 °F 98.2 °F 73.4 °F 59% 29.89 in 10.0 mi SSW 8.1 mph - N/A   Clear
7:55 PM 87.8 °F 95.6 °F 73.4 °F 62% 29.90 in 10.0 mi SSW 5.8 mph - N/A   Clear
8:15 PM 86.0 °F 95.1 °F 75.2 °F 70% 29.90 in 10.0 mi South 6.9 mph - N/A   Clear
8:35 PM 84.2 °F 92.3 °F 75.2 °F 74% 29.90 in 10.0 mi South 5.8 mph - N/A   Clear
8:55 PM 82.4 °F 88.2 °F 73.4 °F 74% 29.90 in 10.0 mi South 6.9 mph - N/A   Clear
9:15 PM 82.4 °F 88.2 °F 73.4 °F 74% 29.91 in 10.0 mi South 6.9 mph - N/A   Clear
9:35 PM 80.6 °F 85.4 °F 73.4 °F 79% 29.91 in 10.0 mi South 6.9 mph - N/A   Clear
9:55 PM 80.6 °F 85.4 °F 73.4 °F 79% 29.92 in 10.0 mi South 6.9 mph - N/A   Clear
10:15 PM 80.6 °F 85.4 °F 73.4 °F 79% 29.92 in 7.0 mi SSW 9.2 mph - N/A   Clear
10:35 PM 80.6 °F 85.4 °F 73.4 °F 79% 29.92 in 10.0 mi SSW 8.1 mph - N/A   Clear
10:55 PM 80.6 °F 85.4 °F 73.4 °F 79% 29.94 in 10.0 mi South 3.5 mph - N/A   Clear
11:15 PM 78.8 °F - 73.4 °F 83% 29.95 in 10.0 mi Calm Calm - N/A   Clear
11:35 PM 78.8 °F - 73.4 °F 83% 29.95 in 7.0 mi Calm Calm - N/A   Clear
11:55 PM 78.8 °F - 73.4 °F 83% 29.95 in 7.0 mi Calm Calm - N/A   Clear